Tracking 28902 objects as of 20-May-2024
HD Live streaming from Space Station
objects crossing your sky now

SIRIO

Track SIRIO now!
SIRIO is classified as:


NORAD ID: 10294
Int'l Code: 1977-080A
Perigee: 35,754.9 km
Apogee: 35,833.4 km
Inclination: 8.9 °
Period: 1,436.1 minutes
Semi major axis: 42165 km
RCS: 0.14 m2 (medium)
Launch date: August 25, 1977
Source: Italy (IT)
Launch site: AIR FORCE EASTERN TEST RANGE (AFETR)
Your satellite tracking list
Your tracking list is empty




NASA's NSSDC Master Catalog

Two Line Element Set (TLE):
1 10294U 77080A   24140.54289925 -.00000096  00000-0  00000-0 0  9999
2 10294   8.9241 305.3957 0009309 146.2270  56.8871  1.00270480110310
Source of the keplerian elements: AFSPC